Beatrice, NE

4:07 PM CST on February 14, 2016 (GMT -0600)
Beatrice Municipal

Weather History for KBIE - October, 2012

Change the Weather History Date:

Monday, October 8, 2012

  Actual Average Record
Temperature  
Mean Temperature 54 °F -  
Max Temperature 72 °F 72 °F 89 °F (1949)
Min Temperature 35 °F 46 °F 17 °F (2000)
Degree Days  
Heating Degree Days 12    
Growing Degree Days 4 (Base 50)    
Moisture  
Dew Point 27 °F    
Average Humidity 43    
Maximum Humidity 77    
Minimum Humidity 14    
Precipitation  
Precipitation 0.00 in - - ()
Sea Level Pressure  
Sea Level Pressure 29.93 in    
Wind  
Wind Speed 11 mph (SSW)    
Max Wind Speed 22 mph    
Max Gust Speed 29 mph    
Visibility 10 miles    
Events      
Averages and records for this station are not official NWS values.
T = Trace of Precipitation, MM = Missing Value Source: NWS Daily Summary

Daily Weather History Graph

Daily Weather History Graph

Search for Another Location

Airport or City:

Trip Planner

Search our weather history database for the weather conditions in past years. The results will help you decide how hot, cold, wet, or windy it might be!

Date:

Astronomy

Oct. 08, 2012 Rise Set
Actual Time 7:30 AM CDT 6:57 PM CDT
Civil Twilight 7:03 AM CDT 7:24 PM CDT
Nautical Twilight 6:32 AM CDT 7:55 PM CDT
Astronomical Twilight 6:00 AM CDT 8:27 PM CDT
Moon 12:11 AM CDT (10/8) 2:48 PM CDT (10/8)
Length of Visible Light 12h 20m
Length of Day
11h 26m
Last Quarter, 46% of the Moon is Illuminated
Oct 8
Last Quarter
Oct 15
New
Oct 21
First Quarter
Oct 29
Full
Nov 6
Last Quarter

Hourly Weather History & Observations

Time (CDT) Temp. Windchill Dew Point Humidity Pressure Visibility Wind Dir Wind Speed Gust Speed Precip Events Conditions
12:15 AM 43.2 °F 37.4 °F 29.3 °F 58% 30.06 in 10.0 mi SSW 10.4 mph - N/A   Clear
12:35 AM 43.0 °F 36.8 °F 29.3 °F 59% 30.06 in 10.0 mi SSW 11.5 mph - N/A   Clear
12:55 AM 42.6 °F 36.8 °F 29.3 °F 59% 30.06 in 10.0 mi SSW 10.4 mph - N/A   Clear
1:15 AM 42.1 °F 36.6 °F 29.3 °F 61% 30.06 in 10.0 mi SSW 9.2 mph - N/A   Clear
1:35 AM 41.7 °F 35.6 °F 29.5 °F 62% 30.06 in 10.0 mi SSW 10.4 mph - N/A   Clear
1:55 AM 41.5 °F 35.9 °F 29.5 °F 62% 30.06 in 10.0 mi SSW 9.2 mph - N/A   Clear
2:15 AM 41.0 °F 35.8 °F 29.7 °F 64% 30.05 in 10.0 mi South 8.1 mph - N/A   Clear
2:35 AM 41.0 °F 35.2 °F 29.5 °F 64% 30.05 in 10.0 mi SSW 9.2 mph - N/A   Clear
2:55 AM 40.5 °F 35.8 °F 29.3 °F 64% 30.04 in 10.0 mi SSW 6.9 mph - N/A   Clear
3:15 AM 40.6 °F 36.0 °F 29.3 °F 64% 30.04 in 10.0 mi SSW 6.9 mph - N/A   Clear
3:35 AM 40.1 °F 35.3 °F 29.3 °F 65% 30.03 in 10.0 mi SSW 6.9 mph - N/A   Clear
3:55 AM 39.6 °F 34.0 °F 29.5 °F 67% 30.02 in 10.0 mi SSW 8.1 mph - N/A   Clear
4:15 AM 39.4 °F 34.5 °F 29.5 °F 68% 30.02 in 10.0 mi SSW 6.9 mph - N/A   Clear
4:35 AM 39.2 °F 33.6 °F 29.3 °F 68% 30.02 in 10.0 mi SSW 8.1 mph - N/A   Clear
4:55 AM 38.7 °F 32.4 °F 29.3 °F 69% 30.02 in 10.0 mi SSW 9.2 mph - N/A   Clear
5:15 AM 38.1 °F 32.9 °F 29.3 °F 71% 30.02 in 10.0 mi SSW 6.9 mph - N/A   Clear
5:35 AM 36.9 °F 30.7 °F 29.3 °F 74% 30.02 in 10.0 mi SSW 8.1 mph - N/A   Clear
5:55 AM 36.7 °F 31.2 °F 29.3 °F 75% 30.01 in 10.0 mi SSW 6.9 mph - N/A   Clear
6:15 AM 36.5 °F 31.0 °F 29.3 °F 75% 30.01 in 10.0 mi South 6.9 mph - N/A   Clear
6:35 AM 35.8 °F 29.4 °F 29.1 °F 77% 30.01 in 10.0 mi South 8.1 mph - N/A   Clear
6:55 AM 36.5 °F 31.0 °F 29.5 °F 76% 30.00 in 10.0 mi South 6.9 mph - N/A   Clear
7:15 AM 37.0 °F 31.6 °F 29.8 °F 75% 30.00 in 10.0 mi South 6.9 mph - N/A   Clear
7:35 AM 36.9 °F 30.7 °F 29.3 °F 74% 30.00 in 10.0 mi South 8.1 mph - N/A   Clear
7:55 AM 36.5 °F 31.8 °F 29.7 °F 76% 30.00 in 10.0 mi South 5.8 mph - N/A   Clear
8:15 AM 36.5 °F 31.0 °F 29.8 °F 77% 30.01 in 10.0 mi South 6.9 mph - N/A   Clear
8:35 AM 38.7 °F 32.4 °F 30.4 °F 72% 30.01 in 10.0 mi South 9.2 mph - N/A   Clear
8:55 AM 39.6 °F 33.0 °F 30.9 °F 71% 30.01 in 10.0 mi South 10.4 mph - N/A   Clear
9:15 AM 41.9 °F 35.9 °F 30.9 °F 65% 30.00 in 10.0 mi SSW 10.4 mph - N/A   Clear
9:35 AM 44.2 °F 38.4 °F 31.3 °F 60% 30.00 in 10.0 mi SSW 11.5 mph - N/A   Clear
9:55 AM 46.8 °F - 31.3 °F 55% 30.00 in 10.0 mi SSW 13.8 mph - N/A   Clear
10:15 AM 48.6 °F - 30.9 °F 51% 29.99 in 10.0 mi South 15.0 mph - N/A   Clear
10:35 AM 50.5 °F - 31.1 °F 47% 29.99 in 10.0 mi South 12.7 mph - N/A   Clear
10:55 AM 52.7 °F - 30.6 °F 43% 29.99 in 10.0 mi SSW 12.7 mph - N/A   Clear
11:15 AM 54.3 °F - 30.0 °F 39% 29.98 in 10.0 mi South 11.5 mph - N/A   Clear
11:35 AM 57.0 °F - 28.9 °F 34% 29.97 in 10.0 mi South 12.7 mph - N/A   Clear
11:55 AM 59.0 °F - 28.8 °F 32% 29.96 in 10.0 mi South 11.5 mph 17.3 mph N/A   Clear
12:15 PM 60.8 °F - 27.3 °F 28% 29.95 in 10.0 mi SSW 11.5 mph 18.4 mph N/A   Clear
12:35 PM 62.6 °F - 26.6 °F 26% 29.95 in 10.0 mi SSW 16.1 mph - N/A   Clear
12:55 PM 63.7 °F - 27.1 °F 25% 29.93 in 10.0 mi SSW 15.0 mph 25.3 mph N/A   Clear
1:15 PM 65.3 °F - 27.0 °F 24% 29.92 in 10.0 mi SSW 18.4 mph 25.3 mph N/A   Clear
1:35 PM 66.4 °F - 27.1 °F 23% 29.91 in 10.0 mi SSW 20.7 mph 28.8 mph N/A   Clear
1:55 PM 67.3 °F - 26.6 °F 22% 29.89 in 10.0 mi SSW 19.6 mph 25.3 mph N/A   Clear
2:15 PM 68.2 °F - 24.8 °F 20% 29.88 in 10.0 mi SSW 19.6 mph 27.6 mph N/A   Clear
2:35 PM 68.7 °F - 24.3 °F 19% 29.87 in 10.0 mi SW 17.3 mph 27.6 mph N/A   Clear
2:55 PM 69.6 °F - 24.4 °F 18% 29.86 in 10.0 mi SSW 21.9 mph 26.5 mph N/A   Clear
3:15 PM 70.7 °F - 23.2 °F 17% 29.85 in 10.0 mi SW 19.6 mph 26.5 mph N/A   Clear
3:35 PM 71.1 °F - 23.4 °F 17% 29.84 in 10.0 mi SSW 18.4 mph 24.2 mph N/A   Clear
3:55 PM 70.7 °F - 21.6 °F 16% 29.83 in 10.0 mi SW 16.1 mph 26.5 mph N/A   Clear
4:15 PM 72.0 °F - 20.8 °F 15% 29.83 in 10.0 mi SW 17.3 mph 24.2 mph N/A   Clear
4:35 PM 72.5 °F - 20.5 °F 14% 29.83 in 10.0 mi SSW 18.4 mph 26.5 mph N/A   Clear
4:55 PM 71.8 °F - 19.9 °F 14% 29.82 in 10.0 mi SW 18.4 mph 24.2 mph N/A   Clear
5:15 PM 71.8 °F - 19.4 °F 14% 29.82 in 10.0 mi SW 18.4 mph 23.0 mph N/A   Clear
5:35 PM 71.6 °F - 19.0 °F 14% 29.82 in 10.0 mi SSW 18.4 mph - N/A   Clear
5:55 PM 71.8 °F - 19.2 °F 14% 29.81 in 10.0 mi SSW 18.4 mph 24.2 mph N/A   Clear
6:15 PM 70.5 °F - 21.0 °F 15% 29.82 in 10.0 mi SSW 15.0 mph - N/A   Clear
6:35 PM 68.7 °F - 24.1 °F 19% 29.82 in 10.0 mi South 15.0 mph - N/A   Clear
6:55 PM 67.1 °F - 25.5 °F 21% 29.82 in 10.0 mi South 11.5 mph - N/A   Clear
7:15 PM 66.2 °F - 26.6 °F 23% 29.82 in 10.0 mi South 11.5 mph - N/A   Clear
7:35 PM 64.6 °F - 27.0 °F 24% 29.82 in 10.0 mi South 12.7 mph - N/A   Clear
7:55 PM 63.5 °F - 27.1 °F 25% 29.82 in 10.0 mi South 12.7 mph - N/A   Clear
8:15 PM 62.6 °F - 26.6 °F 26% 29.82 in 10.0 mi South 12.7 mph - N/A   Clear
8:35 PM 62.6 °F - 27.3 °F 26% 29.82 in 10.0 mi South 16.1 mph - N/A   Clear
8:55 PM 62.6 °F - 27.0 °F 26% 29.83 in 10.0 mi South 17.3 mph - N/A   Clear
9:15 PM 61.7 °F - 26.6 °F 26% 29.83 in 10.0 mi South 15.0 mph 20.7 mph N/A   Clear
9:35 PM 61.2 °F - 26.6 °F 27% 29.83 in 10.0 mi South 17.3 mph 23.0 mph N/A   Clear
9:55 PM 60.3 °F - 26.6 °F 28% 29.83 in 10.0 mi South 15.0 mph - N/A   Clear
10:15 PM 59.9 °F - 26.6 °F 28% 29.83 in 10.0 mi South 15.0 mph 19.6 mph N/A   Clear
10:35 PM 59.0 °F - 26.6 °F 29% 29.83 in 10.0 mi South 13.8 mph 20.7 mph N/A   Clear
10:55 PM 58.8 °F - 27.1 °F 30% 29.83 in 10.0 mi SSW 15.0 mph 23.0 mph N/A   Clear
11:15 PM 59.0 °F - 26.6 °F 29% 29.83 in 10.0 mi SSW 15.0 mph - N/A   Clear
11:35 PM 58.5 °F - 27.9 °F 31% 29.83 in 10.0 mi SSW 16.1 mph 25.3 mph N/A   Clear
11:55 PM 57.7 °F - 28.4 °F 33% 29.84 in 10.0 mi SSW 17.3 mph 24.2 mph N/A   Clear